Terug naar catalogus

CZ-4 DEB

ActiefSSO
NORAD 20850·DEBRIS·🇨🇳 China

Gelanceerd Sep 3, 1990 vanaf Taiyuan Satellite Launch Center

Loading…

Volgende Passages (komende 24 uur)

TLE

VersSource: Space-Track

Epoch: Sep 14, 2026, 14:57 UTC

1 20850U 90081N   26257.62332779  .00000265  00000-0  11100-3 0  9993
2 20850  98.4389 305.2022 0071333 318.6753 204.4701 14.32275455875761

Volg CZ-4 DEB in realtime met AllMySat

Download on the App Store